TimeMDT,TemperatureF,Dew PointF,Humidity,Sea Level PressureIn,VisibilityMPH,Wind Direction,Wind SpeedMPH,Gust SpeedMPH,PrecipitationIn,Events,Conditions,WindDirDegrees,DateUTC
12:55 AM,48.9,21.9,35,29.94,10.0,East,3.5,-,N/A,,Clear,90,2013-04-28 06:55:00
1:55 AM,46.0,19.0,34,29.93,10.0,Variable,4.6,-,N/A,,Mostly Cloudy,0,2013-04-28 07:55:00
2:55 AM,45.0,19.0,36,29.92,10.0,Calm,Calm,-,N/A,,Clear,0,2013-04-28 08:55:00
3:55 AM,39.9,19.0,43,29.93,10.0,Calm,Calm,-,N/A,,Clear,0,2013-04-28 09:55:00
4:55 AM,37.9,19.9,48,29.94,10.0,West,6.9,-,N/A,,Partly Cloudy,270,2013-04-28 10:55:00
5:55 AM,48.0,25.0,41,29.92,10.0,NW,5.8,-,N/A,,Overcast,320,2013-04-28 11:55:00
7:55 AM,48.9,32.0,52,29.98,10.0,WNW,6.9,-,N/A,,Overcast,300,2013-04-28 13:55:00
8:55 AM,52.0,30.0,43,29.96,10.0,NNE,3.5,-,N/A,,Scattered Clouds,20,2013-04-28 14:55:00
9:55 AM,52.0,30.9,45,29.99,10.0,NNE,8.1,-,N/A,,Overcast,20,2013-04-28 15:55:00
10:55 AM,54.0,30.0,40,29.97,10.0,Calm,Calm,-,N/A,,Mostly Cloudy,0,2013-04-28 16:55:00
11:55 AM,55.9,30.0,37,29.95,10.0,Variable,4.6,-,N/A,,Mostly Cloudy,0,2013-04-28 17:55:00
12:55 PM,60.1,24.1,25,29.92,10.0,West,12.7,19.6,N/A,,Scattered Clouds,280,2013-04-28 18:55:00
1:55 PM,63.0,19.9,19,29.90,10.0,WNW,13.8,26.5,N/A,,Clear,290,2013-04-28 19:55:00
2:55 PM,64.0,16.0,16,29.88,10.0,WNW,12.7,19.6,N/A,,Clear,290,2013-04-28 20:55:00
3:55 PM,64.0,14.0,14,29.87,10.0,Variable,4.6,24.2,N/A,,Scattered Clouds,0,2013-04-28 21:55:00
4:55 PM,64.0,10.9,13,29.87,10.0,West,16.1,23.0,N/A,,Clear,260,2013-04-28 22:55:00
5:55 PM,63.0,10.0,13,29.83,10.0,WSW,16.1,26.5,N/A,,Partly Cloudy,250,2013-04-28 23:55:00
6:55 PM,61.0,12.0,15,29.85,10.0,WNW,13.8,-,N/A,,Clear,290,2013-04-29 00:55:00
7:55 PM,55.9,10.0,16,29.87,10.0,West,18.4,25.3,N/A,,Clear,270,2013-04-29 01:55:00
8:55 PM,53.1,8.1,16,29.88,10.0,West,15.0,-,N/A,,Clear,270,2013-04-29 02:55:00
9:55 PM,52.0,12.9,21,29.91,10.0,West,8.1,-,N/A,,Clear,260,2013-04-29 03:55:00
10:55 PM,46.0,12.0,25,29.91,10.0,SW,3.5,-,N/A,,Clear,230,2013-04-29 04:55:00